Regional Weather Roundup
Issued by NWS

Home | Current Version | Previous Version | Text Only | Print | Product List | Glossary On
Versions: 1 2 3 4 5 6 7 8 9 10 11 12 13 14 15 16 17 18 19 20 21 22 23 24 25 26 27 28 29 30 31 32 33 34 35 36 37 38 39 40 41 42 43 44 45 46 47 48 49 50
000
ASUS43 KMKX 290521
RWRWI

WISCONSIN REGIONAL WEATHER ROUNDUP
NATIONAL WEATHER SERVICE MILWAUKEE/SULLIVAN WI
1200 AM CDT WED JUL 29 2015

NOTE: "FAIR" INDICATES FEW OR NO CLOUDS BELOW 12,000 FEET WITH NO
SIGNIFICANT WEATHER AND/OR OBSTRUCTIONS TO VISIBILITY.

WIZ001-002-006>008-014>016-023>028-290600-
NORTHWEST WISCONSIN

CITY           SKY/WX    TMP DP  RH WIND       PRES   REMARKS
SUPERIOR ARPT  CLEAR     68  60  74 SW7       29.80F
ASHLAND        MOCLDY    72  71  97 SW14G20   29.80R
HAYWARD        CLOUDY    74  59  59 W7G18     29.88R
SIREN          CLEAR     65  60  84 SW6       29.89F
CUMBERLAND     PTCLDY    68  57  68 W6        29.91S
RICE LAKE      PTCLDY    71  58  65 W8G16     29.92R
CHETEK         PTCLDY    73  62  68 W5        29.91R
LADYSMITH      MOCLDY    76  72  86 SW12G20   29.90R
EAU CLAIRE     MOCLDY    77  68  73 W18G31    29.90R
MENOMONIE      MOCLDY    75  60  59 W12       29.92R
NEW RICHMOND   PTCLDY    67  59  75 SW5       29.92F
OSCEOLA        PTCLDY    67  60  78 SW6       29.93F
$$

WIZ003>005-009-010-017-018-290600-
NORTH CENTRAL WISCONSIN

CITY           SKY/WX    TMP DP  RH WIND       PRES   REMARKS
MANITOWISH WTR CLOUDY    74  72  91 S10       29.87S
ARBOR VITAE    MOCLDY    76  72  87 S9        29.88F
WOODRUFF       MOCLDY    76  72  87 S9        29.88F
RHINELANDER    CLOUDY    74  69  85 S7        29.91S
EAGLE RIVER    PTCLDY    71  68  90 S5        29.90S
LAND O LAKES   CLOUDY    73  68  83 S6        29.90S
PHILLIPS       CLOUDY    74  72  92 SW10      29.87S
TOMAHAWK       CLOUDY    73  69  86 CALM      29.90S
MEDFORD        CLOUDY    74  72  94 SW7       29.91S
MERRILL        NOT AVBL
$$

WIZ029-030-035-036-043>047-290600-
CENTRAL WISCONSIN

CITY           SKY/WX    TMP DP  RH WIND       PRES   REMARKS
WAUSAU         MOCLDY    75  70  84 SW8       29.90R
MOSINEE        CLOUDY    73  70  88 S8        29.93S
MARSHFIELD     CLOUDY    75  69  81 SW8       29.91S
STEVENS POINT  CLOUDY    73  69  88 S7        29.93S
WAUPACA        MOCLDY    74  73  94 SW5       29.93R
WAUTOMA        CLOUDY    76  72  87 S3        29.93S
WISC RAPIDS    CLOUDY    76  69  79 SW7       29.93R
CAMP DOUGLAS   NOT AVBL
$$

WIZ011>013-019>022-031-037>040-048>050-290600-
NORTHEAST WISCONSIN

CITY           SKY/WX    TMP DP  RH WIND       PRES   REMARKS
ANTIGO         CLOUDY    71  69  94 S5        29.93S
SHAWANO        PTCLDY    74  67  79 CALM      29.91R
OCONTO         PTCLDY    73  70  88 S5        29.90R
STURGEON BAY   PTCLDY    72  63  73 S9        29.94R
GREEN BAY      PTCLDY    74  68  81 S8        29.92R
MANITOWOC      MOCLDY    72  67  84 MISG      29.94R
APPLETON       MOCLDY    73  70  88 SW7       29.93R
CLINTONVILLE   MOCLDY    72  64  78 CALM      29.91R
OSHKOSH        MOCLDY    76  71  85 SW7       29.93R
$$

WIZ032>034-041-042-053>061-290600-
SOUTHWEST WISCONSIN

CITY           SKY/WX    TMP DP  RH WIND       PRES   REMARKS
LA CROSSE      CLOUDY    77  71  82 S6        29.91S
SPARTA         CLOUDY    75  69  81 SW3       29.93S
VIROQUA        CLOUDY    72  72 100 SW5       29.96S
BOSCOBEL       CLOUDY    75  71  87 SW3       29.94S
PRAIRIE DU CHI CLOUDY    75  71  85 SW6       29.95R
PLATTEVILLE    CLOUDY    74  73  98 SW3       29.96S
$$

WIZ056-057-062-063-064-067-068-290600-
SOUTH CENTRAL WISCONSIN

CITY           SKY/WX    TMP DP  RH WIND       PRES   REMARKS
REEDSBURG      CLOUDY    74  71  89 S3        29.93F
BARABOO/DELLS  CLOUDY    75  68  78 SW7       29.94S
LONE ROCK      CLOUDY    74  71  91 CALM      29.94F
MINERAL POINT  CLOUDY    75  73  94 S3        29.97S FOG
MADISON        CLOUDY    79  72  79 SW6       29.94F HX  82
MIDDLETON      CLOUDY    76  74  93 SW3       29.95F
WATERTOWN      CLOUDY    73  73 100 CALM      29.95S
MONROE         CLOUDY    75  72  88 SW7       29.96F
JANESVILLE     CLOUDY    77  73  88 CALM      29.95F
$$

WIZ051-052-058>065-066-070>072-290600-
SOUTHEAST WISCONSIN

CITY           SKY/WX    TMP DP  RH WIND       PRES   REMARKS
MILWAUKEE      MOCLDY    77  68  73 SW3       29.94R
WAUKESHA       MOCLDY    72  68  88 CALM      29.97R
MILWAUKEE/TIMM MOCLDY    73  64  73 SW3       29.96R
RACINE         MOCLDY    75  69  81 S3        29.97R
BURLINGTON     MOCLDY    69  68  96 CALM      29.96R FOG
KENOSHA        MOCLDY    73  69  87 CALM      29.95R
FOND DU LAC    MOCLDY    75  71  87 SW6       29.94R
SHEBOYGAN      PTCLDY    70  67  90 CALM      29.95R
WEST BEND      MOCLDY    72  68  88 CALM      29.96R
JUNEAU         CLOUDY    73  71  93 S6        29.96S
$$

LSZ147-162-290600-
LAKE SUPERIOR

STATION/POSITION TIME  TEMP    WIND        PRES    WAVE
                       AIR SEA DIR/SP/G            HT/PER
                 (UTC) (F)     (DEG/KT/KT) (MB)    (FT/S)
W MID LAKE BUOY  0450   68 62  170/ 12/ 14 1006.9R   1/ 2
DEVILS ISLAND    0500   76     240/ 20/ 24 1007.4R
PORT WING        0400   80     230/ 11/ 18 1008.5
SAXON HARBOR     0440   79                 1008.1S
$$

LMZ867-665-643>646-290600-
LAKE MICHIGAN

STATION/POSITION TIME  TEMP    WIND        PRES    WAVE
                       AIR SEA DIR/SP/G            HT/PER
                 (UTC) (F)     (DEG/KT/KT) (MB)    (FT/S)
CHAMBERS ISLAND  0400   76     150/  5/ 11 1011.9F
S GREEN BAY BUOY 0500   76 75  190/ 14/ 16 1014.2
N MID LAKE BUOY  0450   73 71  180/ 10/ 12 1012.3F   1/ 3
NORTHPORT PIER   0400   74     160/  5/  7 1012.2F
SISTER BAY       0444   74     170/ 11/ 14   N/A
KEWAUNEE LAKESHO 0400   66     190/  7/  8 1012.2F
SHEBOYGAN LAKESH 0500   73     210/  8/  9 1014.1R
PORT WASHINGTON  0440   72     190/  2/  6 1014.6R
ATWATER BUOY     0500   70     180/  6/  6 1015.4R
MILWAUKEE LAKESH 0500   72     180/  2/  3   N/A
KENOSHA   LAKESH 0500   76     200/  4/  6 1013.9R
$$

TC  - TEMPERATURE IN CELSIUS
VSB - VISIBILITY IN STATUTE MILES
WCI - WIND CHILL INDEX
HX  - HEAT INDEX



USA.gov is the U.S. government's official web portal to all federal, state and local government web resources and services.